Location: Lhota
(50.0887°N, 14.0116°E)
Time: 16:10:17
(UTC+00:00)

NOSS 2-1 (C) - Pass Details

Date: 19 May 2025
Orbit: 378 x 1699 km, 63.3° (Epoch: 16 June)

Event Time Altitude Azimuth Distance (km) Brightness Sun altitude
Exits shadow 22:55:51 25° 270° (W) 870 4.3 -19.9°
Maximum altitude 22:57:08 38° 319° (NW) 630 4.0 -19.9°
Drops below altitude 10° 22:59:58 10° 30° (NNE) 1,405 6.3 -19.9°
Sets 23:02:01 0° 40° (NE) 2,269 7.3 -19.9°
